Regional Weather Roundup
Issued by NWS

Home | Current Version | Previous Version | Graphics & Text | Print | Product List | Glossary On
Versions: 1 2 3 4 5 6 7 8 9 10 11 12 13 14 15 16 17 18 19 20 21 22 23 24 25 26 27 28 29 30 31 32 33 34 35 36 37 38 39 40 41 42 43 44 45 46 47 48 49 50
000
ASUS43 KMKX 042311
RWRWI

WISCONSIN REGIONAL WEATHER ROUNDUP
NATIONAL WEATHER SERVICE MILWAUKEE/SULLIVAN WI
600 PM CDT TUE AUG 04 2015

NOTE: "FAIR" INDICATES FEW OR NO CLOUDS BELOW 12,000 FEET WITH NO
SIGNIFICANT WEATHER AND/OR OBSTRUCTIONS TO VISIBILITY.

WIZ001-002-006>008-014>016-023>028-050000-
NORTHWEST WISCONSIN

CITY           SKY/WX    TMP DP  RH WIND       PRES   REMARKS
SUPERIOR ARPT  MOSUNNY   69  53  57 NE7       29.98R
ASHLAND        PTSUNNY   68  54  60 NE6       30.00R
HAYWARD        PTSUNNY   74  51  44 N5        29.98R
SIREN          MOSUNNY   75  53  45 N5        29.98S
CUMBERLAND     MOSUNNY   73  50  43 NW7       29.98S
RICE LAKE      PTSUNNY   75  53  46 W6        29.99S
CHETEK         PTSUNNY   76  55  48 CALM      29.97S
LADYSMITH      CLOUDY    72  54  52 W6        30.00R
EAU CLAIRE     PTSUNNY   79  52  38 NW8       29.96F
MENOMONIE      MOSUNNY   79  49  34 NW9       29.97F
NEW RICHMOND   MOSUNNY   78  50  37 NW9       29.98S
OSCEOLA        MOSUNNY   78  53  41 N7        29.99S
$$

WIZ003>005-009-010-017-018-050000-
NORTH CENTRAL WISCONSIN

CITY           SKY/WX    TMP DP  RH WIND       PRES   REMARKS
MANITOWISH WTR PTSUNNY   66  52  59 N7        30.00R
ARBOR VITAE    PTSUNNY   69  53  56 N8        29.99S
WOODRUFF       PTSUNNY   69  53  56 N8        29.99S
RHINELANDER    PTSUNNY   70  51  51 VRB5      29.99S
EAGLE RIVER    MOSUNNY   68  46  45 N12G17    29.99R
LAND O LAKES   PTSUNNY   67  48  50 NW8       30.01R
PHILLIPS       CLOUDY    69  53  58 NW3       29.98S
TOMAHAWK       CLOUDY    68  52  57 CALM      29.99S
MEDFORD        CLOUDY    71  53  53 W6        29.99S
MERRILL        NOT AVBL
$$

WIZ029-030-035-036-043>047-050000-
CENTRAL WISCONSIN

CITY           SKY/WX    TMP DP  RH WIND       PRES   REMARKS
WAUSAU         CLOUDY    73  51  46 NW9       29.96S
MOSINEE        PTSUNNY   72  54  53 NW8       29.99S
MARSHFIELD     PTSUNNY   75  50  41 NW12      29.98S
STEVENS POINT  CLOUDY    73  52  47 NW8       29.98S
WAUPACA        SUNNY     78  50  36 W10       29.96S
WAUTOMA        MOSUNNY   79  49  34 NW12      29.96S
WISC RAPIDS    MOSUNNY   78  50  37 NW10      29.98S
CAMP DOUGLAS   SUNNY     76  57  52 NW5       29.96S
$$

WIZ011>013-019>022-031-037>040-048>050-050000-
NORTHEAST WISCONSIN

CITY           SKY/WX    TMP DP  RH WIND       PRES   REMARKS
ANTIGO         CLOUDY    68  52  56 N8        29.99R
SHAWANO        PTSUNNY   76  52  42 NW6       29.95S
OCONTO         CLOUDY    71  56  59 E8        29.94R
STURGEON BAY   PTSUNNY   68  55  64 E7        29.97S
GREEN BAY      MOSUNNY   75  54  47 NW7       29.94S
MANITOWOC      PTSUNNY   77  50  38 MISG      29.94S
APPLETON       PTSUNNY   73  48  40 NW9       29.96S
CLINTONVILLE   PTSUNNY   75  48  38 NW8       29.95S
OSHKOSH        SUNNY     76  52  43 NW13      29.95S
$$

WIZ032>034-041-042-053>061-050000-
SOUTHWEST WISCONSIN

CITY           SKY/WX    TMP DP  RH WIND       PRES   REMARKS
LA CROSSE      MOSUNNY   81  52  36 NW7       29.96S HX  80
SPARTA         SUNNY     79  48  33 NW10      29.97F
VIROQUA        MOSUNNY   75  52  43 NW8       29.99F
BOSCOBEL       PTSUNNY   82  53  36 N6        29.96S HX  81
PRAIRIE DU CHI PTSUNNY   78  48  34 N5        29.96S
PLATTEVILLE    PTSUNNY   75  57  53 CALM      29.97F
$$

WIZ056-057-062-063-064-067-068-050000-
SOUTH CENTRAL WISCONSIN

CITY           SKY/WX    TMP DP  RH WIND       PRES   REMARKS
REEDSBURG      MOSUNNY   77  51  39 N5        29.96S
BARABOO/DELLS  MOSUNNY   78  46  32 NW10      29.96F
LONE ROCK      MOSUNNY   79  52  38 W8        29.97S
MINERAL POINT  PTSUNNY   77  48  36 NW5       29.97F
MADISON        PTSUNNY   78  54  43 N5        29.96F
MIDDLETON      PTSUNNY   80  49  34 W6        29.97F
WATERTOWN      MOSUNNY   77  53  43 NW6       29.96S
MONROE         PTSUNNY   75  54  46 W5        29.97F
JANESVILLE     MOSUNNY   79  52  38 W6        29.96F
$$

WIZ051-052-058>065-066-070>072-050000-
SOUTHEAST WISCONSIN

CITY           SKY/WX    TMP DP  RH WIND       PRES   REMARKS
MILWAUKEE      PTSUNNY   79  49  34 W12       29.95F
WAUKESHA       MOSUNNY   75  50  41 NW7       29.97F
MILWAUKEE/TIMM SUNNY     77  46  33 NW9       29.95F
RACINE         PTSUNNY   73  56  54 E9        29.97S
BURLINGTON     PTSUNNY   76  49  37 W8        29.96F
KENOSHA        PTSUNNY   76  54  46 NW7       29.96S
FOND DU LAC    SUNNY     78  52  40 NW13      29.95F
SHEBOYGAN      SUNNY     77  54  44 NW13G18   29.94F
WEST BEND      PTSUNNY   75  50  41 NW7       29.95F
JUNEAU         CLOUDY    76  53  44 NW5       29.96F
$$

LSZ147-162-050000-
LAKE SUPERIOR

STATION/POSITION TIME  TEMP    WIND        PRES    WAVE
                       AIR SEA DIR/SP/G            HT/PER
                 (UTC) (F)     (DEG/KT/KT) (MB)    (FT/S)
W MID LAKE BUOY  2250   58 58  100/  4/  4 1016.1S   0
DEVILS ISLAND    2300   63      60/  2/  2 1015.9S
PORT WING        2200   70      40/  8/  9 1015.6
SAXON HARBOR     2200   67      50/  7/  8 1015.2
$$

LMZ867-665-643>646-050000-
LAKE MICHIGAN

STATION/POSITION TIME  TEMP    WIND        PRES    WAVE
                       AIR SEA DIR/SP/G            HT/PER
                 (UTC) (F)     (DEG/KT/KT) (MB)    (FT/S)
CHAMBERS ISLAND  2200   66      40/  5/  8 1013.9S
N MID LAKE BUOY  2250   65 70  220/  2/  2 1013.9F   0
NORTHPORT PIER   2200   68      80/  4/  6 1013.9F
SISTER BAY       2218   70      50/  2/  7   N/A
ALGOMA LAKESHORE 2227           80/  5/  7   N/A
KEWAUNEE LAKESHO 2200   65     180/  9/ 11 1013.4S
SHEBOYGAN LAKESH 2300   76     280/ 12/ 15 1013.8F
PORT WASHINGTON  2200   81     290/  9/ 13 1014.2
ATWATER BUOY     2300   69 59   70/  6/  6 1015.3F
MILWAUKEE LAKESH 2200   77     290/  5/  8   N/A
KENOSHA   LAKESH 2300   71     110/ 11/ 11 1013.9S
$$

TC  - TEMPERATURE IN CELSIUS
VSB - VISIBILITY IN STATUTE MILES
WCI - WIND CHILL INDEX
HX  - HEAT INDEX



USA.gov is the U.S. government's official web portal to all federal, state and local government web resources and services.